SCP
0 0 0 0 0 0 0 0 0 0 0 0 0 0 0 0 0 0 0 0 0 0 0 0 0 0 0 0 0 0 0 0 0 0 0 0 0 0 0 0 0 0 0 0 0 0 0 0 0
0 0 0 0 0 0 0 0 0 0 0 0 0 0 0 0 0 0 0 0 0 0 0 0 0 0 0 0 0 0 0 0 0 0 0 0 0 0 0 0 0 0 0 0 0 0 0 0 0
0 0 0 0 0 0 0 0 0 0 0 0 0 0 0 0 0 0 0 0 0 0 0 0 0 0 0 0 0 0 0 0 0 0 0 0 0 0 0 0 0 0 0 0 0 0 0 0 0
0 0 0 0 0 0 0 0 0 0 0 0 0 0 0 0 0 0 0 0 0 0 0 0 0 0 0 0 0 0 0 0 0 0 0 0 0 0 0 0 0 0 0 0 0 0 0 0 0
0 0 0 0 0 0 0 0 0 0 0 0 0 0 0 0 0 0 0 0 0 0 0 0 0 0 0 0 0 0 0 0 0 0 0 0 0 0 0 0 0 0 0 0 0 0 0 0 0
0 0 0 0 0 0 0 0 0 0 0 0 0 0 0 0 0 0 0 0 0 0 0 0 0 0 0 0 0 0 0 0 0 0 0 0 0 0 0 0 0 0 0 0 0 0 0 0 0
0 0 0 0 0 0 0 0 0 0 0 0 0 0 0 0 0 0 0 0 0 0 0 0 0 0 0 0 0 0 0 0 0 0 0 0 0 0 0 0 0 0 0 0 0 0 0 0 0
0 0 0 0 0 0 0 0 0 0 0 0 0 0 0 0 0 0 0 0 0 0 0 0 0 0 0 0 0 0 0 0 0 0 0 0 0 0 0 0 0 0 0 0 0 0 0 0 0
0 0 0 0 0 0 0 0 0 0 0 0 0 0 0 0 0 0 0 0 0 0 0 0 0 0 0 0 0 0 0 0 0 0 0 0 0 0 0 0 0 0 0 0 0 0 0 0 0
0 0 0 0 0 0 0 0 0 0 0 0 0 0 0 0 0 0 0 0 0 0 0 0 0 0 0 0 0 0 0 0 0 0 0 0 0 0 0 0 0 0 0 0 0 0 0 0 0
0 0 0 0 0 0 0 0 0 0 0 0 0 0 0 0 0 0 0 0 0 0 0 0 0 0 0 0 0 0 0 0 0 0 0 0 0 0 0 0 0 0 0 0 0 0 0 0 0
0 0 0 0 0 0 0 0 0 0 0 0 0 0 0 0 0 0 0 0 0 0 0 0 0 0 0 0 0 0 0 0 0 0 0 0 0 0 0 0 0 0 0 0 0 0 0 0 0
0 0 0 0 0 0 0 0 0 0 0 0 0 0 0 0 0 0 0 0 0 0 0 0 0 0 0 0 0 0 0 0 0 0 0 0 0 0 0 0 0 0 0 0 0 0 0 0 0
0 0 0 0 0 0 0 0 0 0 0 0 0 0 0 0 0 0 0 0 0 0 0 0 0 0 0 0 0 0 0 0 0 0 0 0 0 0 0 0 0 0 0 0 0 0 0 0 0
0 0 0 0 0 0 0 0 0 0 0 0 0 0 0 0 0 0 0 0 0 0 0 0 0 0 0 0 0 0 0 0 0 0 0 0 0 0 0 0 0 0 0 0 0 0 0 0 0
0 0 0 0 0 0 0 0 0 0 0 0 0 0 0 0 0 0 0 0 0 0 0 0 0 0 0 0 0 0 0 0 0 0 0 0 0 0 0 0 0 0 0 0 0 0 0 0 0
0 0 0 0 0 0 0 0 0 0 0 0 0 0 0 0 0 0 0 0 0 0 0 0 0 0 0 0 0 0 0 0 0 0 0 0 0 0 0 0 0 0 0 0 0 0 0 0 0
0 0 0 0 0 0 0 0 0 0 0 0 0 0 0 0 0 0 0 0 0 0 0 0 0 0 0 0 0 0 0 0 0 0 0 0 0 0 0 0 0 0 0 0 0 0 0 0 0
0 0 0 0 0 0 0 0 0 0 0 0 0 0 0 0 0 0 0 0 0 0 0 0 0 0 0 0 0 0 0 0 0 0 0 0 0 0 0 0 0 0 0 0 0 0 0 0 0
0 0 0 0 0 0 0 0 0 0 0 0 0 0 0 0 0 0 0 0 0 0 0 0 0 0 0 0 0 0 0 0 0 0 0 0 0 0 0 0 0 0 0 0 0 0 0 0 0
0 0 0 0 0 0 0 0 0 0 0 0 0 0 0 0 0 0 0 0 0 0 0 0 0 0 0 0 0 0 0 0 0 0 0 0 0 0 0 0 0 0 0 0 0 0 0 0 0
0 0 0 0 0 0 0 0 0 0 0 0 0 0 0 0 0 0 0 0 0 0 0 0 0 0 0 0 0 0 0 0 0 0 0 0 0 0 0 0 0 0 0 0 0 0 0 0 0
0 0 0 0 0 0 0 0 0 0 0 0 0 0 0 0 0 0 0 0 0 0 0 0 0 0 0 0 0 0 0 0 0 0 0 0 0 0 0 0 0 0 0 0 0 0 0 0 0
0 0 0 0 0 0 0 0 0 0 0 0 0 0 0 0 0 0 0 0 0 0 0 0 0 0 0 0 0 0 0 0 0 0 0 0 0 0 0 0 0 0 0 0 0 0 0 0 0
0 0 0 0 0 0 0 0 0 0 0 0 0 0 0 0 0 0 0 0 0 0 0 0 0 0 0 0 0 0 0 0 0 0 0 0 0 0 0 0 0 0 0 0 0 0 0 0 0
0 0 0 0 0 0 0 0 0 0 0 0 0 0 0 0 0 0 0 -0 -0 0 0 0 0 0 0 0 0 0 0 0 0 0 0 0 0 0 0 0 0 0 0 0 0 0 0 0 0
0 0 0 0 0 0 0 0 0 0 0 0 0 0 0 0 0 0 0 0 0 0 0 0 0 0 0 0 0 0 0 0 0 0 0 0 0 0 0 0 0 0 0 0 0 0 0 0 0
0 0 0 0 0 0 0 0 0 0 0 0 0 0 0 0 0 0 0 0 0 0 0 0 0 0 0 0 0 0 0 0 0 0 0 0 0 0 0 0 0 0 0 0 0 0 0 0 0
0 0 0 0 0 0 0 0 0 0 0 0 0 0 0 0 0 0 0 0 0 0 0 0 0 0 0 0 0 0 0 0 0 0 0 0 0 0 0 0 0 0 0 0 0 0 0 0 0
0 0 0 0 0 0 0 0 0 0 0 0 0 0 0 0 0 0 0 0 0 0 0 0 0 0 0 0 0 0 0 0 0 0 0 0 0 0 0 0 0 0 0 0 0 0 0 0 0
Wind_Speed
9 5 2 4 6 4 1 2 1 0 1 0 2 5 5 3 2 3 1 3 5 5 4 4 5 6 7 7 7 7 7 7 8 7 7 7 8 9 8 8 8 8 8 8 8 9 9 9 9
4 3 4 5 5 2 3 2 2 2 3 2 3 4 4 2 2 3 2 2 5 6 4 4 5 6 7 6 7 7 7 7 7 7 7 7 7 7 7 8 8 8 8 8 8 8 8 8 8
4 1 4 4 3 5 4 2 3 1 1 2 3 3 3 2 1 2 2 4 5 5 4 4 5 6 6 6 6 6 6 6 7 7 7 7 7 7 8 8 7 8 8 8 8 8 8 7 7
3 4 5 4 2 3 4 3 2 1 2 2 3 3 2 1 1 2 4 5 6 4 4 4 5 6 6 6 6 5 5 6 6 6 6 6 6 8 8 8 8 8 8 8 8 8 8 7 7
4 4 4 1 3 3 2 2 1 1 0 1 3 3 1 2 2 4 5 6 6 4 3 4 5 5 5 5 6 5 5 6 6 6 6 6 7 8 8 8 8 8 8 7 7 7 7 7 7
4 4 3 2 3 3 2 2 1 1 0 0 2 3 1 1 3 3 4 5 5 5 4 3 4 5 5 5 5 5 5 5 6 6 6 6 6 7 7 8 8 8 7 7 7 7 7 7 7
4 4 3 4 3 3 2 1 2 2 0 1 1 4 1 1 1 2 3 4 4 4 4 3 3 3 4 4 4 5 5 5 5 5 5 5 5 6 6 7 7 7 7 7 7 7 7 6 6
4 4 1 2 3 3 2 0 0 2 1 1 2 4 3 2 0 2 4 4 4 4 3 3 2 3 3 3 4 5 5 5 5 5 5 5 5 5 6 6 6 7 7 6 7 6 6 6 6
3 4 2 3 4 3 1 1 2 1 3 2 1 2 2 3 3 4 4 4 3 3 2 2 2 2 2 2 3 4 5 5 5 5 5 5 3 4 4 5 5 6 6 6 6 5 5 5 5
4 3 5 3 3 2 1 0 1 1 2 1 1 2 2 4 4 5 4 3 2 2 1 1 2 2 3 2 3 2 3 3 3 3 3 3 3 3 3 5 5 5 5 5 4 5 4 4 2
2 4 3 2 1 1 0 1 1 2 2 3 4 2 2 3 3 4 3 3 3 2 1 1 2 3 3 3 2 2 2 2 2 3 3 3 3 2 2 2 3 3 3 2 3 3 2 2 2
1 1 2 2 1 0 1 1 1 1 5 3 4 4 4 3 3 4 3 2 2 2 1 1 1 2 3 3 3 2 2 2 1 2 3 3 2 2 2 2 2 2 1 2 2 2 2 2 1
1 2 2 2 2 1 0 2 1 3 4 2 1 2 4 4 3 3 3 3 2 2 1 1 1 2 3 3 3 3 2 2 2 1 2 3 3 2 2 2 2 2 2 2 2 2 2 1 1
1 2 3 4 3 2 2 4 2 6 3 1 1 3 3 4 4 3 3 2 2 2 2 1 2 2 3 3 3 3 3 2 2 2 2 3 2 2 2 2 2 2 1 1 1 2 2 1 1
1 2 5 3 2 2 1 5 6 6 3 3 3 4 3 3 3 4 5 4 4 3 2 2 2 2 3 3 3 3 3 3 3 2 2 3 3 3 2 2 2 1 1 2 2 2 2 2 1
2 2 3 5 2 2 3 9 6 4 3 4 4 3 3 3 3 3 3 3 3 2 2 2 2 3 3 3 4 3 3 3 3 2 2 3 3 3 2 2 2 2 1 1 2 2 2 1 1
1 2 5 6 2 1 3 8 7 3 3 5 5 4 4 3 2 2 2 2 2 3 3 2 2 3 3 4 4 4 3 3 2 2 2 2 3 3 2 2 2 2 2 2 2 1 1 1 1
5 4 5 6 3 2 5 9 9 5 4 6 5 5 4 4 3 2 1 1 1 1 2 2 2 2 3 3 4 3 3 3 2 2 2 2 2 3 2 2 2 2 2 2 2 1 1 1 1
4 4 7 7 4 3 7 10 10 7 5 6 6 5 5 5 3 1 1 0 1 2 2 2 2 2 3 3 3 3 3 2 2 2 3 3 2 2 2 2 2 2 2 2 2 1 1 1 1
4 5 6 7 3 3 6 10 9 7 7 8 8 7 6 4 2 1 0 1 1 2 1 2 2 1 2 2 2 3 3 2 2 2 2 2 2 2 2 3 2 2 2 2 2 1 1 0 1
6 7 7 6 5 3 4 8 6 6 4 4 5 5 5 6 5 3 2 1 1 1 1 1 1 1 1 2 3 3 3 2 2 2 2 1 2 2 2 2 2 2 2 2 1 1 1 1 1
7 5 5 4 2 4 1 7 7 5 4 4 5 4 5 4 4 3 3 2 2 1 1 1 1 1 1 2 3 5 4 3 3 2 2 2 2 2 2 2 3 2 2 1 1 0 0 1 1
6 3 2 3 3 4 3 5 9 2 5 6 6 5 4 4 4 4 4 3 2 1 1 1 1 1 1 2 3 3 3 2 2 2 3 2 2 2 2 2 2 2 1 1 1 1 0 1 1
1 2 3 2 1 5 6 6 9 4 6 5 4 4 3 3 3 3 2 2 2 1 1 1 2 1 1 2 2 3 3 3 4 3 3 2 2 1 1 2 2 2 1 1 1 2 1 1 1
1 3 3 4 2 8 4 6 9 6 4 5 5 4 3 3 3 3 3 2 2 1 1 1 2 1 1 1 2 2 3 3 4 3 3 3 2 1 1 1 2 2 1 1 1 2 2 2 2
4 6 6 6 6 6 3 8 7 4 3 2 3 3 3 3 3 3 3 3 3 2 2 2 2 1 1 1 1 2 2 2 2 2 2 3 2 2 2 2 1 1 1 1 2 2 2 2 2
3 5 5 3 2 4 7 6 7 2 3 2 1 2 2 3 2 2 2 3 2 2 2 3 2 2 2 2 1 1 2 2 2 1 1 1 1 1 1 1 1 1 1 1 1 1 2 2 2
3 4 3 4 4 6 7 6 5 4 5 3 2 2 2 2 2 2 2 3 2 2 2 2 2 3 2 2 2 2 1 2 2 2 1 1 0 0 1 1 1 1 1 1 1 1 1 2 2
4 4 4 3 4 5 5 8 5 6 5 5 4 3 2 2 3 3 2 2 2 2 1 1 2 1 1 2 2 2 1 2 2 2 2 1 1 1 1 1 2 2 2 2 2 2 2 2 2
5 7 8 6 6 5 5 9 2 3 3 3 3 3 2 2 2 2 1 1 1 1 1 1 2 2 2 2 1 2 2 2 2 2 1 1 1 1 1 1 1 1 2 2 2 3 2 3 3
Wind_Direction
332 330 50 58 59 57 202 248 209 159 93 127 83 93 106 99 119 150 120 107 123 136 139 133 116 113 111 114 116 112 110 109 105 104 104 108 113 111 110 110 110 107 104 103 101 100 98 96 94
327 342 54 62 92 127 248 245 207 215 178 140 72 83 84 80 67 104 101 131 132 136 134 132 116 113 112 111 117 118 117 112 108 106 105 108 115 116 116 114 110 108 105 104 104 103 101 99 96
328 38 78 79 121 179 200 207 180 221 50 88 75 59 92 120 114 149 168 142 127 126 123 126 116 114 116 114 113 121 121 119 116 111 111 113 117 119 116 114 111 110 109 107 105 103 102 100 97
48 47 57 77 187 221 196 215 195 148 27 57 96 69 66 49 163 170 142 129 117 120 118 123 116 118 119 117 117 117 123 125 122 119 116 118 116 119 113 109 106 107 109 110 108 103 102 99 94
63 76 72 62 240 249 233 238 190 158 157 61 108 109 87 355 50 114 128 125 124 120 113 127 112 114 119 120 118 116 121 121 122 122 116 116 117 116 112 109 105 104 106 109 109 104 100 97 93
58 73 103 206 235 246 256 260 166 94 218 43 105 119 167 15 58 103 122 125 127 126 118 121 119 113 115 118 117 115 113 116 117 116 113 113 118 118 118 111 105 101 100 103 105 103 101 95 88
104 107 163 192 218 244 244 254 148 173 260 309 124 125 175 323 2 99 110 112 108 111 109 106 117 123 117 117 114 115 114 113 110 110 108 105 110 114 116 114 108 105 102 100 101 98 95 91 86
123 109 156 201 203 242 258 306 144 153 185 360 100 141 203 241 202 92 99 97 98 97 103 107 109 107 109 120 113 106 107 107 102 99 97 101 108 111 107 110 113 110 104 99 98 96 92 89 85
92 88 201 210 193 228 282 34 351 61 108 45 68 163 196 150 120 98 89 76 82 87 94 110 113 111 110 115 110 106 101 94 91 90 87 91 96 103 103 102 108 110 105 99 94 92 85 77 78
90 154 220 224 196 200 297 3 322 46 63 56 24 19 90 121 122 118 119 122 121 132 137 127 128 127 119 113 99 92 91 87 84 88 89 93 93 95 97 94 92 93 89 81 77 75 68 65 60
132 187 225 269 241 195 274 315 333 135 246 218 197 192 140 133 128 135 146 152 159 157 112 104 134 132 125 116 110 96 88 82 83 86 85 95 94 92 90 87 78 83 79 70 66 65 52 55 56
137 260 239 281 324 292 236 233 321 206 227 221 189 172 162 155 169 170 170 175 158 134 120 91 114 120 125 122 125 117 108 98 90 91 93 97 100 98 103 94 85 81 79 82 77 80 67 58 71
234 269 306 311 339 315 283 252 215 250 250 252 176 158 172 175 185 192 180 171 154 137 135 147 123 129 132 124 127 118 114 112 105 98 95 98 111 113 108 104 91 82 75 84 80 86 78 53 57
246 283 287 293 290 283 239 272 236 254 246 246 201 209 204 193 190 182 177 178 179 174 180 165 137 137 132 133 137 130 119 110 101 91 87 98 108 115 113 102 94 83 76 77 86 87 87 71 68
320 335 321 294 267 257 213 285 241 240 233 241 239 231 221 205 189 192 200 195 194 191 183 170 154 140 135 142 139 127 121 111 101 92 90 92 98 116 118 114 102 88 87 87 80 68 64 63 62
21 18 294 281 251 243 172 261 260 229 205 238 249 238 225 222 204 208 211 201 198 186 180 178 152 147 144 147 140 126 121 116 111 98 93 94 98 104 114 112 112 106 96 91 93 81 73 51 42
7 261 260 283 251 214 204 256 270 236 205 244 251 241 224 225 234 240 222 202 196 189 183 181 168 157 157 151 136 126 120 114 113 103 95 92 98 103 110 113 109 112 104 93 88 68 85 92 39
235 243 259 264 271 248 251 262 273 267 228 242 247 242 232 219 225 231 233 220 184 169 161 167 156 152 149 144 130 122 113 114 111 111 99 94 93 97 105 105 98 101 98 84 76 73 42 65 56
214 236 265 267 272 264 255 265 268 262 243 238 240 235 233 222 226 223 202 154 100 86 98 115 131 145 144 153 153 155 157 150 135 120 106 108 108 110 108 108 107 101 105 105 99 90 75 36 43
247 265 273 287 292 269 275 277 270 251 232 226 226 226 221 215 226 236 167 102 107 117 122 122 117 129 157 161 164 158 150 147 139 124 115 114 118 121 116 114 116 112 108 98 86 82 91 2 1
251 240 250 267 312 306 306 293 278 274 243 248 234 218 213 201 203 214 194 162 127 115 135 137 148 147 134 138 138 127 120 123 132 137 136 117 124 124 122 123 120 117 120 135 135 135 121 194 276
252 245 242 251 275 277 242 283 276 267 278 260 252 231 220 208 197 191 186 177 170 185 146 120 129 116 119 139 147 156 165 170 175 170 157 132 128 129 129 126 129 134 136 140 164 145 277 179 227
234 268 253 249 232 273 241 243 279 287 268 257 246 234 229 209 196 195 191 182 173 167 143 130 117 98 106 126 147 162 165 165 154 147 143 145 143 142 138 137 143 144 148 158 172 195 257 221 228
224 10 3 18 69 265 227 212 270 235 231 240 234 229 224 205 195 191 181 159 148 142 121 119 122 107 104 124 141 149 158 160 154 159 166 168 166 164 154 145 157 159 163 176 200 209 218 232 245
99 93 11 340 308 253 227 223 250 246 239 223 222 220 207 189 176 176 171 173 169 163 148 139 130 135 136 139 152 148 151 155 166 173 176 174 178 184 188 177 182 180 193 203 208 218 232 232 235
207 169 178 212 238 270 256 236 252 256 279 245 206 198 179 174 179 186 189 184 183 180 174 168 165 171 164 159 174 146 144 157 164 171 175 181 193 199 189 186 188 186 196 210 213 228 242 248 242
183 213 195 173 268 275 258 270 290 263 286 283 199 164 186 188 188 192 196 186 187 180 191 193 190 182 172 172 161 150 152 157 157 148 146 176 191 192 166 179 195 199 200 215 218 234 246 249 242
198 171 132 166 205 249 268 253 242 239 242 250 237 216 211 195 188 199 209 204 189 185 186 189 193 196 183 176 177 168 173 171 158 144 154 161 155 84 178 195 203 207 217 228 224 248 257 253 261
182 187 185 187 195 201 259 262 226 222 219 214 227 226 215 213 209 211 224 201 173 165 170 191 197 196 183 185 177 163 173 165 153 156 174 180 171 151 191 225 221 216 228 239 237 250 250 247 258
209 196 179 190 229 218 244 266 262 227 205 191 217 230 229 217 217 217 210 173 157 176 196 205 201 201 205 197 175 177 180 160 152 168 181 173 179 199 214 216 236 247 244 242 239 245 251 247 249